EL BRULL (Osona)





Hora UTC 08:20
Temperatura 22.4 ºC
Humedad 60.8 %
Presión 1016.5 hPa
Pluja 0.0 mm
Velocidad viento 4.1 km/h
Dirección viento NW
Radiación solar 639.6 W/m²

Datos diarios 2024-06-18



Hora UTC (invierno +1h; verano +2h)
Temperatura (ºC) Humedad (%) Presión (hPa) Velocidad viento (km/h) Precipitación (mm) Radiación solar (W/m²)
Hora UTC Aire Humedad Presión Vel. Dir. Vel. Max Dir. Intent. máx 5 min. Rad. Sol.
00:10 17.3 70.9 1017.6 2.9 SSW 8.8 SSW 0.0 0.0
00:20 17.2 71.5 1017.6 3.8 SW 8.0 SW 0.0 0.0
00:30 17.3 70.2 1017.4 1.7 W 7.5 W 0.0 0.0
00:40 17.3 69.3 1017.4 2.2 SSW 6.5 W 0.0 0.0
00:50 17.1 69.2 1017.4 1.2 ENE 4.7 W 0.0 0.0
01:00 16.9 69.2 1017.3 2.5 ESE 9.5 ESE 0.0 0.0
01:10 16.6 70.9 1017.3 3.2 SE 6.9 SE 0.0 0.0
01:20 16.3 71.0 1017.2 1.9 SE 4.2 SE 0.0 0.0
01:30 16.6 69.2 1017.1 3.1 SE 6.4 ESE 0.0 0.0
01:40 16.6 68.8 1017.1 2.0 ESE 5.5 SE 0.0 0.0
01:50 16.2 71.6 1017.1 1.8 E 5.1 ESE 0.0 0.0
02:00 16.3 73.8 1017.0 2.4 E 8.0 NE 0.0 0.0
02:10 16.7 74.4 1016.8 1.0 E 8.0 NE 0.0 0.0
02:20 16.6 74.1 1016.6 2.0 N 6.7 NNW 0.0 0.0
02:30 15.8 74.7 1016.5 3.0 N 6.2 N 0.0 0.0
02:40 16.4 71.6 1016.5 2.7 N 6.4 NNW 0.0 0.0
02:50 16.3 71.7 1016.3 1.8 NE 4.9 NNE 0.0 0.0
03:00 17.0 69.2 1016.3 0.7 NNE 2.0 N 0.0 0.0
03:10 17.1 67.3 1016.3 1.3 NE 3.5 NNE 0.0 0.0
03:20 16.5 70.0 1016.3 3.5 N 7.8 NNW 0.0 0.0
03:30 15.5 75.6 1016.4 3.3 N 7.2 NNW 0.0 0.0
03:40 15.0 77.5 1016.3 1.7 NNE 4.5 N 0.0 0.0
03:50 15.2 75.3 1016.2 2.0 NE 6.1 N 0.0 0.1
04:00 15.5 72.7 1016.2 1.5 NE 4.4 N 0.0 0.3
04:10 16.2 67.6 1016.2 0.9 ENE 2.0 E 0.0 1.2
04:20 16.5 67.8 1016.0 0.9 NE 2.6 NE 0.0 3.8
04:30 17.0 65.4 1016.0 0.6 NE 2.4 ENE 0.0 7.5
04:40 16.9 65.9 1016.0 1.9 ENE 6.2 NE 0.0 11.9
04:50 17.4 62.8 1016.0 1.3 ENE 2.8 E 0.0 16.0
05:00 17.2 63.9 1016.0 0.5 SE 2.6 ESE 0.0 20.1
05:10 17.4 63.2 1016.0 0.6 SSE 1.9 ESE 0.0 24.3
05:20 17.4 63.3 1016.1 2.1 SE 4.7 SE 0.0 30.7
05:30 17.8 61.9 1016.1 0.8 ENE 4.0 E 0.0 47.5
05:40 18.4 60.4 1016.2 1.0 S 4.0 SE 0.0 43.2
05:50 18.8 58.8 1016.3 0.8 ESE 2.9 ESE 0.0 47.5
06:00 19.0 58.0 1016.4 1.2 SSW 4.0 SSE 0.0 60.6
06:10 19.1 59.8 1016.6 2.6 S 5.1 SSE 0.0 52.9
06:20 18.9 60.3 1016.7 3.1 S 7.6 S 0.0 100.3
06:30 19.1 59.5 1016.7 2.8 SE 6.0 SSE 0.0 302.7
06:40 20.1 55.6 1016.7 3.1 SSW 9.1 ESE 0.0 329.6
06:50 20.8 54.0 1016.8 5.0 SE 11.3 SSE 0.0 364.0
07:00 21.1 53.1 1016.7 7.4 SE 16.0 SSE 0.0 392.6
07:10 21.4 51.6 1016.7 4.8 ESE 13.9 SE 0.0 425.3
07:20 22.3 51.8 1016.7 2.7 ENE 14.2 SE 0.0 455.2
07:30 22.2 59.1 1016.7 1.8 NNW 6.0 N 0.0 486.3
07:40 22.1 60.4 1016.7 3.4 NNW 10.9 N 0.0 518.7
07:50 22.4 60.3 1016.5 2.1 NNW 7.8 NNW 0.0 551.8
08:00 22.6 59.1 1016.4 4.6 N 10.0 N 0.0 582.8
08:10 22.3 60.7 1016.4 4.4 NNW 10.9 NNW 0.0 613.9
08:20 22.4 60.8 1016.5 4.1 NW 10.2 N 0.0 639.6
Máxima 22.6 77.5 1017.6 7.4 SE 16.0 SSE 0.0 639.6
Mínima 15.0 51.6 1016.0
Total 0.0